1381276826005,1.87787
1381276886005,1.83174
1381276946005,1.86482
1381277006005,1.86591
1381277066005,1.86739
1381277126005,1.98452
1381277186005,1.86636
1381277246005,1.89045
1381277306005,1.86621
1381277366005,1.89013
1381277426005,1.89740
1381277486005,1.91099
1381277546005,1.90878
1381277606005,1.90069
1381277666005,1.89040
1381277726005,1.88140
1381277786005,1.89656
1381277846005,1.85922
1381277906005,1.87704
1381277966005,1.90491
1381278026005,1.91507
1381278086005,1.89618
1381278146005,1.89679
1381278206005,1.90430
1381278266005,1.91254
1381278326005,1.90598
1381278386005,1.90041
1381278446005,1.90518
1381278506005,1.88074
1381278566005,1.89098
1381278626005,1.87983
1381278686005,1.89393
1381278746005,1.91228
1381278806005,1.88858
1381278866005,1.89055
1381278926005,1.89548
1381278986005,1.89268
1381279046005,1.89187
1381279106005,1.89990
1381279166005,1.89966
1381279226005,1.91085
1381279286005,1.92299
1381279346005,1.90473
1381279406005,1.89165
1381279466005,1.89219
1381279526005,1.91675
1381279586005,1.87844
1381279646005,1.88006
1381279706005,1.89591
1381279766005,1.89182
1381279826005,1.87464
1381279886005,1.87778
1381279946005,1.91372
1381280006005,1.89783
1381280066005,1.88433
1381280126005,1.91043
1381280186005,1.89418
1381280246005,1.91227
1381280306005,1.87955
1381280366005,1.88057
1381280426016,1.94017
1381280486016,1.90960
1381280546016,1.90267
1381280606016,1.88699
1381280666016,1.90944
1381280726016,1.90572
1381280786016,1.92911
1381280846016,1.89679
1381280906016,1.92106
1381280966016,1.91370
1381281026016,1.90895
1381281086016,1.92280
1381281146016,1.89570
1381281206016,1.90642
1381281266016,1.89727
1381281326016,1.99672
1381281386016,1.92320
1381281446016,1.90574
1381281506016,1.93198
1381281566016,1.91616
1381281626016,1.91118
1381281686016,1.91477
1381281746016,1.91691
1381281806016,1.90727
1381281866016,1.92763
1381281926016,1.91585
1381281986016,1.93125
1381282046016,1.95196
1381282106016,1.94127
1381282166016,1.91753
1381282226016,1.94211
1381282286016,1.94995
1381282346016,1.95161
1381282406016,1.95893
1381282466016,1.95093
1381282526016,1.95890
1381282586016,1.98886
1381282646016,2.00627
1381282706016,1.98034
1381282766016,1.98315
1381282826016,2.00183
1381282886016,1.99007
1381282946016,2.00633
1381283006016,2.02440
1381283066016,2.02969
1381283126016,2.03675
1381283186016,2.07052
1381283246016,2.04582
1381283306016,2.05734
1381283366016,2.09457
1381283426016,2.10059
1381283486016,2.09617
1381283546016,2.10798
1381283606016,2.10534
1381283666016,2.12784
1381283726016,2.12066
1381283786016,2.15033
1381283846016,2.13168
1381283906016,2.14246
1381283966016,2.13484
1381291226045,1.89481
1381291286045,1.90632
1381291346045,1.87657
1381291406045,1.87302
1381291466045,1.90014
1381291526045,1.90871
1381291586045,1.89315
1381291646045,1.87799
1381291706045,1.90042
1381291766045,1.89263
1381291826045,1.90941
1381291886045,1.89371
1381291946045,1.89461
1381292006045,1.88805
1381292066045,1.88623
1381292126045,1.85375
1381292186045,1.88407
1381292246045,1.89008
1381292306045,1.86643
1381292366045,1.89252
1381292426045,1.91328
1381292486045,1.89350
1381292546045,1.86915
1381292606045,1.90236
1381292666045,1.90962
1381292726045,1.88175
1381292786045,1.90110
1381292846045,1.88147
1381292906045,1.88567
1381292966045,1.88723
1381293026045,1.87047
1381293086045,1.89487
1381293146045,1.88670
1381293206045,1.89149
1381293266045,1.87886
1381293326045,1.87831
1381293386045,1.88583
1381293446045,1.90164
1381293506045,1.87104
1381293566045,1.90595
1381293626045,1.88537
1381293686045,1.88352
1381293746045,1.89537
1381293806045,1.88237
1381293866045,1.90164
1381293926045,1.91096
1381293986045,1.85487
1381294046045,1.91516
1381294106045,1.87583
1381294166045,1.89085
1381294226045,1.87316
1381294286045,1.87267
1381294346045,1.90683
1381294406045,1.87513
1381294466045,1.89179
1381294526045,1.87315
1381294586045,1.90179
1381294646045,1.95094
1381294706045,1.88304
1381294766045,1.88458
1381294826055,1.87287
1381294886055,1.90141
1381294946055,1.89459
1381295006055,1.87380
1381295066055,1.89505
1381295126055,1.89904
1381295186055,1.90588
1381295246055,1.95358
1381295306055,1.90637
1381295366055,1.85612
1381295426055,1.90512
1381295486055,1.85476
1381295546055,1.85891
1381295606055,1.89360
1381295666055,1.89600
1381295726055,1.89320
1381295786055,1.90108
1381295846055,1.90894
1381295906055,1.88988
1381295966055,1.90027
1381296026055,1.90234
1381296086055,1.88382
1381296146055,1.87843
1381296206055,1.89610
1381296266055,1.89434
1381296326055,1.89224
1381296386055,1.88496
1381296446055,1.89707
1381296506055,1.91983
1381296566055,1.93061
1381296626055,1.87422
1381296686055,1.91440
1381296746055,1.90902
1381296806055,1.91478
1381296866055,1.90594
1381296926055,1.90748
1381296986055,1.91876
1381297046055,1.92243
1381297106055,1.89441
1381297166055,1.91712
1381297226055,1.92795
1381297286055,1.93674
1381297346055,1.89730
1381297406055,1.92378
1381297466055,1.89620
1381297526055,1.91910
1381297586055,1.74926
1381297646055,1.91079
1381297706055,1.91133
1381297766055,1.92059
1381297826055,1.88944
1381297886055,1.92943
1381297946055,1.92587
1381298006055,1.90024
1381298066055,1.88412
1381298126055,1.91744
1381298186055,1.91787
1381298246055,1.91671
1381298306055,1.91020
1381298366055,1.90575
1381298426065,1.89520
1381298486065,1.89858
1381298546065,1.89265
1381298606065,1.87815
1381298666065,1.91015
1381298726065,1.87870
1381298786065,1.91880
1381298846065,1.89123
1381298906065,1.91008
1381298966065,1.91888
1381299026065,1.91253
1381299086065,1.90478
1381299146065,1.88884
1381299206065,1.91997
1381299266065,1.88964
1381299326065,1.89252
1381299386065,1.93075
1381299446065,1.91564
1381299506065,1.91155
1381299566065,1.91741
1381299626065,1.89694
1381299686065,1.91350
1381299746065,1.93476
1381299806065,1.89996
1381299866065,1.92855
1381299926065,1.92203
1381299986065,1.88637
1381300046065,1.92579
1381300106065,1.90704
1381300166065,1.91879
1381300226065,1.89498
1381300286065,1.90268
1381300346065,1.90223
1381300406065,1.90638
1381300466065,1.91592
1381300526065,1.91299
1381300586065,1.91337
1381300646065,1.89554
1381300706065,1.87934
1381300766065,1.90581
1381300826065,1.89322
1381300886065,1.87940
1381300946065,1.85892
1381301006065,1.90491
1381301066065,1.91114
1381301126065,1.87249
1381301186065,1.90401
1381301246065,1.87819
1381301306065,1.86805
1381301366065,1.87982
1381301426065,1.87896
1381301486065,1.88276
1381301546065,1.87057
1381301606065,1.86951
1381301666065,1.87380
1381301726065,1.85071
1381301786065,1.89197
1381301846065,1.88064
1381301906065,1.90804
1381301966065,1.86399
1381302026075,1.85262
1381302086075,1.85863
1381302146075,1.83721
1381302206075,1.85731
1381302266075,1.87410
1381302326075,1.87469
1381302386075,1.86655
1381302446075,1.88323
1381302506075,1.88526
1381302566075,1.89334
1381302626075,1.87062
1381302686075,1.87720
1381302746075,1.85636
1381302806075,1.86036
1381302866075,1.86135
1381302926075,1.86865
1381302986075,1.86836
1381303046075,2.01071
1381303106075,1.86224
1381303166075,1.89100
1381303226075,1.85059
1381303286075,1.86784
1381303346075,1.86375
1381303406075,1.87140
1381303466075,1.88788
1381303526075,1.83869
1381303586075,1.86469
1381303646075,1.84739
1381303706075,1.87269
1381303766075,1.85294
1381303826075,1.85529
1381303886075,1.85283
1381303946075,1.86965
1381304006075,1.85331
1381304066075,1.85235
1381304126075,1.94894
1381304186075,1.88532
1381304246075,1.86484
1381304306075,1.87296
1381304366075,1.85254
1381304426075,1.85759
1381304486075,1.86898
1381304546075,1.86042
1381304606075,1.86527
1381304666075,1.86278
1381304726075,1.87403
1381304786075,1.85851
1381304846075,1.86117
1381304906075,1.88045
1381304966075,1.85829
1381305026075,1.86580
1381305086075,1.86924
1381305146075,1.85843
1381305206075,1.84876
1381305266075,1.86170
1381305326075,1.86482
1381305386075,1.86731
1381305446075,1.85763
1381305506075,1.86522
1381305566075,1.87080
1381305626085,1.86606
1381305686085,1.87632
1381305746085,1.86507
1381305806085,1.86372
1381305866085,1.88126
1381305926085,1.89247
1381305986085,1.85545
1381306046085,1.88392
1381306106085,1.87387
1381306166085,1.89436
1381306226085,1.86756
1381306286085,1.85815
1381306346085,1.87757
1381306406085,1.86051
1381306466085,1.85790
1381306526085,1.87021
1381306586085,1.86912
1381306646085,1.86722
1381306706085,1.86894
1381306766085,1.87526
1381306826085,1.87569
1381306886085,1.87243
1381306946085,1.85960
1381307006085,1.88558
1381307066085,1.89114
1381307126085,1.86608
1381307186085,1.86853
1381307246085,1.89597
1381307306085,1.87503
1381307366085,1.88887
1381307426085,1.87128
1381307486085,1.88122
1381307546085,1.86412
1381307606085,1.86678
1381307666085,1.88718
1381307726085,1.86328
1381307786085,1.88270
1381307846085,1.89541
1381307906085,1.87951
1381307966085,1.88319
1381308026085,1.87443
1381308086085,1.89361
1381308146085,1.88282
1381308206085,1.90659
1381308266085,1.88943
1381308326085,1.86439
1381308386085,1.87026
1381308446085,1.89663
1381308506085,1.86590
1381308566085,1.88004
1381308626085,1.90813
1381308686085,1.88016
1381308746085,1.87296
1381308806085,1.88789
1381308866085,1.86247
1381308926085,1.87102
1381308986085,1.85596
1381309046085,1.88557
1381309106085,1.86410
1381309166085,1.87384
1381309226095,1.88254
1381309286095,1.89252
1381309346095,1.86736
1381309406095,1.90289
1381309466095,1.88922
1381309526095,1.86841
1381309586095,1.87727
1381309646095,1.88313
1381309706095,1.88378
1381309766095,1.87856
1381309826095,1.88914
1381309886095,1.87394
1381309946095,1.87752
1381310006095,1.88376
1381310066095,1.86773
1381310126095,1.88597
1381310186095,1.86656
1381310246095,1.86359
1381310306095,1.87042
1381310366095,1.86132
1381310426095,1.87766
1381310486095,1.84611
1381310546095,1.87426
1381310606095,1.87495
1381310666095,1.87407
1381310726095,1.87946
1381310786095,1.88547
1381310846095,1.88100
1381310906095,1.88252
1381310966095,1.87799
1381311026095,1.86425
1381311086095,1.87645
1381311146095,1.88848
1381311206095,1.86606
1381311266095,1.88048
1381311326095,1.88525
1381311386095,1.87750
1381311446095,1.93624
1381311506095,1.87350
1381311566095,1.86315
1381311626095,1.88570
1381311686095,1.88449
1381311746095,1.87981
1381311806095,1.88966
1381311866095,1.87789
1381311926095,1.86724
1381311986095,1.88338
1381312046095,1.86348
1381312106095,1.85128
1381312166095,1.87560
1381312226095,1.87762
1381312286095,1.90102
1381312346095,1.90313
1381312406095,1.85299
1381312466095,1.86002
1381312526095,1.88416
1381312586095,1.86399
1381312646095,1.88782
1381312706095,1.88507
1381312766095,1.87761
1381312826105,1.89502
1381312886105,1.88038
1381312946105,1.87173
1381313006105,1.87527
1381313066105,1.88464
1381313126105,1.88017
1381313186105,1.88546
1381313246105,1.86222
1381313306105,1.87086
1381313366105,1.91197
1381313426105,1.88705
1381313486105,1.83163
1381313546105,1.87693
1381313606105,1.87114
1381313666105,1.89523
1381313726105,1.87052
1381313786105,1.89370
1381313846105,1.86198
1381313906105,1.86889
1381313966105,1.87066
1381314026105,1.86048
1381314086105,1.85022
1381314146105,1.71512
1381314206105,1.88826
1381314266105,1.88363
1381314326105,1.86443
1381314386105,1.86868
1381314446105,1.87642
1381314506105,1.88582
1381314566105,2.00020
1381314626105,1.88794
1381314686105,1.88372
1381314746105,1.87229
1381314806105,1.86576
1381314866105,1.89299
1381314926105,1.87287
1381314986105,1.87766
1381315046105,1.88019
1381315106105,1.88013
1381315166105,1.87345
1381315226105,1.89309
1381315286105,1.87194
1381315346105,1.86532
1381315406105,1.86714
1381315466105,1.86345
1381315526105,1.86627
1381315586105,1.86964
1381315646105,1.85628
1381315706105,1.86803
1381315766105,1.85190
1381315826105,1.87931
1381315886105,1.87993
1381315946105,1.87808
1381316006105,1.84787
1381316066105,1.86673
1381316126105,1.86708
1381316186105,1.85434
1381316246105,1.88156
1381316306105,1.87395
1381316366105,1.86185
1381316426116,1.86533
1381316486116,1.85920
1381316546116,1.86789
1381316606116,1.86373
1381316666116,1.82935
1381316726116,1.85990
1381316786116,1.83809
1381316846116,1.87209
1381316906116,1.87937
1381316966116,1.87507
1381317026116,1.85587
1381317086116,1.86395
1381317146116,1.85743
1381317206116,1.86835
1381317266116,1.84306
1381317326116,1.85890
1381317386116,1.87698
1381317446116,1.85448
1381317506116,1.87389
1381317566116,1.86048
1381317626116,1.85746
1381317686116,1.86216
1381317746116,1.87466
1381317806116,1.82941
1381317866116,1.84546
1381317926116,1.88158
1381317986116,1.87506
1381318046116,1.88422
1381318106116,1.85817
1381318166116,1.84615
1381318226116,1.87112
1381318286116,1.86641
1381318346116,1.86649
1381318406116,1.86563
1381318466116,1.87982
1381318526116,1.84271
1381318586116,1.84621
1381318646116,1.85256
1381318706116,1.88916
1381318766116,1.87459
1381318826116,1.86186
1381318886116,1.86704
1381318946116,1.86225
1381319006116,1.83875
1381319066116,1.89461
1381319126116,1.86304
1381319186116,1.87708
1381319246116,1.85897
1381319306116,1.86531
1381319366116,1.86609
1381319426116,1.88249
1381319486116,1.86633
1381319546116,1.86554
1381319606116,1.87003
1381319666116,1.86792
1381319726116,1.84652
1381319786116,1.86078
1381319846116,1.88538
1381319906116,1.86616
1381319966116,1.87237
1381323626138,1.87572
1381323686138,1.88429
1381323746138,1.88950
1381323806138,1.87082
1381323866138,1.86704
1381323926138,1.85991
1381323986138,1.85606
1381324046138,1.88833
1381324106138,1.86607
1381324166138,1.88639
1381324226138,1.89344
1381324286138,1.84083
1381324346138,1.89658
1381324406138,1.87223
1381324466138,1.89267
1381324526138,1.87898
1381324586138,1.87595
1381324646138,1.89887
1381324706138,1.86190
1381324766138,1.86188
1381324826138,1.88790
1381324886138,1.90290
1381324946138,1.84659
1381325006138,1.88921
1381325066138,1.89326
1381325126138,1.86557
1381325186138,1.86446
1381325246138,1.85490
1381325306138,1.87893
1381325366138,1.86538
1381325426138,1.89988
1381325486138,1.89474
1381325546138,1.86041
1381325606138,1.88037
1381325666138,1.88074
1381325726138,1.89121
1381325786138,1.90425
1381325846138,1.86772
1381325906138,1.90937
1381325966138,1.89708
1381326026138,1.85571
1381326086138,1.88972
1381326146138,1.88213
1381326206138,1.90563
1381326266138,1.89272
1381326326138,1.89523
1381326386138,1.87558
1381326446138,1.86472
1381326506138,1.87604
1381326566138,1.90376
1381326626138,1.88599
1381326686138,1.87376
1381326746138,1.88400
1381326806138,1.89813
1381326866138,1.88353
1381326926138,1.90193
1381326986138,1.88179
1381327046138,1.87764
1381327106138,1.88004
1381327166138,1.87781
1381327226149,1.87424
1381327286149,1.87508
1381327346149,1.88276
1381327406149,1.87277
1381327466149,1.87556
1381327526149,1.86394
1381327586149,1.90546
1381327646149,1.90566
1381327706149,1.89847
1381327766149,1.90622
1381327826149,1.86795
1381327886149,1.91396
1381327946149,1.88314
1381328006149,1.85603
1381328066149,1.90427
1381328126149,1.88742
1381328186149,1.86838
1381328246149,1.91356
1381328306149,1.90414
1381328366149,1.87455
1381328426149,1.87626
1381328486149,1.89657
1381328546149,1.90131
1381328606149,1.86969
1381328666149,1.87699
1381328726149,1.91161
1381328786149,1.89743
1381328846149,1.86843
1381328906149,1.86269
1381328966149,1.91913
1381329026149,1.88338
1381329086149,1.88161
1381329146149,1.89977
1381329206149,1.86884
1381329266149,1.89957
1381329326149,1.87105
1381329386149,1.88134
1381329446149,1.89113
1381329506149,1.89695
1381329566149,1.87715
1381329626149,1.87675
1381329686149,1.89241
1381329746149,1.89327
1381329806149,1.90665
1381329866149,1.87505
1381329926149,1.86707
1381329986149,1.88919
1381330046149,1.88411
1381330106149,1.86984
1381330166149,1.86314
1381330226149,1.86111
1381330286149,1.87225
1381330346149,1.87306
1381330406149,1.88046
1381330466149,1.85502
1381330526149,1.87845
1381330586149,1.85754
1381330646149,1.85246
1381330706149,1.89184
1381330766149,1.88363
1381330826160,1.85406
1381330886160,1.86262
1381330946160,1.88112
1381331006160,1.89536
1381331066160,1.85866
1381331126160,1.85455
1381331186160,1.86517
1381331246160,1.70476
1381331306160,1.88258
1381331366160,1.86678
1381331426160,1.85767
1381331486160,1.87468
1381331546160,1.89725
1381331606160,1.88199
1381331666160,1.86305
1381331726160,1.79758
1381331786160,1.85505
1381331846160,1.87000
1381331906160,1.86614
1381331966160,1.86333
1381332026160,1.85197
1381332086160,1.87039
1381332146160,1.86313
1381332206160,1.88710
1381332266160,1.87569
1381332326160,1.87196
1381332386160,1.86934
1381332446160,1.85409
1381332506160,1.86124
1381332566160,1.85494
1381332626160,1.85820
1381332686160,1.99633
1381332746160,1.86372
1381332806160,1.88017
1381332866160,1.85527
1381332926160,1.89103
1381332986160,1.88714
1381333046160,1.86250
1381333106160,1.88339
1381333166160,1.85812
1381333226160,1.88064
1381333286160,1.87580
1381333346160,1.88837
1381333406160,1.89113
1381333466160,1.87995
1381333526160,1.88851
1381333586160,1.85291
1381333646160,1.85040
1381333706160,1.86350
1381333766160,1.85661
1381333826160,1.84910
1381333886160,1.88332
1381333946160,1.86135
1381334006160,1.88032
1381334066160,1.85406
1381334126160,1.87887
1381334186160,1.86156
1381334246160,1.88334
1381334306160,1.87806
1381334366160,1.86311
1381334426172,1.85765
1381334486172,1.85511
1381334546172,1.85773
1381334606172,1.84842
1381334666172,1.87944
1381334726172,1.86738
1381334786172,1.90561
1381334846172,1.89283
1381334906172,1.88166
1381334966172,1.84814
1381335026172,1.89800
1381335086172,1.86735
1381335146172,1.85945
1381335206172,1.84253
1381335266172,1.84694
1381335326172,1.86443
1381335386172,1.87239
1381335446172,1.85218
1381335506172,1.85578
1381335566172,1.88896
1381335626172,1.85173
1381335686172,1.85881
1381335746172,1.85849
1381335806172,1.87122
1381335866172,1.87820
1381335926172,1.85896
1381335986172,1.87294
1381336046172,1.89945
1381336106172,1.84902
1381336166172,1.86592
1381336226172,1.87989
1381336286172,1.86994
1381336346172,1.87582
1381336406172,1.84783
1381336466172,1.85710
1381336526172,1.87278
1381336586172,1.88903
1381336646172,1.85593
1381336706172,1.85385
1381336766172,1.85684
1381336826172,1.85530
1381336886172,1.84661
1381336946172,1.89529
1381337006172,1.89435
1381337066172,1.88085
1381337126172,1.85019
1381337186172,1.85377
1381337246172,1.85116
1381337306172,1.84944
1381337366172,1.85017
1381337426172,1.87363
1381337486172,1.86589
1381337546172,1.87213
1381337606172,1.84677
1381337666172,1.84321
1381337726172,1.86443
1381337786172,1.85437
1381337846172,1.87894
1381337906172,1.87761
1381337966172,1.87914
1381338026183,1.87667
1381338086183,1.85346
1381338146183,1.87380
1381338206183,1.87195
1381338266183,1.84584
1381338326183,1.84322
1381338386183,1.85978
1381338446183,1.86437
1381338506183,1.84265
1381338566183,1.82791
1381338626183,1.83837
1381338686183,1.77226
1381339226183,1.85945
1381339286183,1.82828
1381339346183,1.83641
1381339406183,1.85522
1381339466183,1.85937
1381339526183,1.84608
1381339586183,1.84119
1381339646183,1.84107
1381339706183,1.87978
1381339766183,1.83082
1381339826183,1.82878
1381339886183,1.84412
1381339946183,1.85636
1381340006183,1.84082
1381340066183,1.83103
1381340126183,1.81511
1381340186183,1.83988
1381340246183,1.84622
1381340306183,1.83135
1381340366183,1.83375
1381340426183,1.85221
1381340486183,1.83422
1381340546183,1.81934
1381340606183,1.84875
1381340666183,1.83351
1381344866195,1.79713
1381344926195,1.80787
1381344986195,1.82025
1381345046195,1.81770
1381349246217,1.84712
1381349306217,1.82572
1381349366217,1.81604
1381349426217,1.84941
1381353566228,1.78915
1381353626228,1.82941
1381353686228,1.85390
1381353746228,1.86916
1381353806228,1.83478
1381357946240,1.80333
1381358006240,1.81743
1381358066240,1.83369
1381358126240,1.83243
1381358186240,1.85954
1381358246240,1.83772
1381358306240,1.83718
1381358366240,1.83061
1381358426240,1.83030
1381358486240,1.82010
1381358546240,1.84102
1381358606240,1.78635
1381358666240,1.85026
1381358726240,1.83342
1381358786240,1.82247
1381358846240,1.85772
1381358906240,1.84293
1381358966240,1.83965
1381359026240,1.83603
1381359086240,1.85190
1381359146240,1.83166
1381359206240,1.84836
1381359266240,1.82396
1381359326240,1.81358
1381359386240,1.84067
1381359446240,1.83180
1381359506240,1.82839
1381359566240,1.81305
1381359626251,1.84243
1381359686251,1.83096
1381359746251,1.81940
1381359806251,1.84489
1381359866251,1.82385
1381359926251,1.81015
1381359986251,1.84344
1381360046251,1.81967
1381360106251,1.80970
1381360166251,1.80924
1381360226251,1.87562
1381360286251,1.83336
1381360346251,1.82169
1381360406251,1.83739
1381360466251,1.82640
1381360526251,1.83771
1381360586251,1.83928
1381360646251,1.83408
1381360706251,1.83228
1381360766251,1.82788
1381360826251,1.82827
1381360886251,1.82921
1381360946251,1.82694
1381361006251,1.83535
1381361066251,1.87307
1381361126251,1.82989
1381361186251,1.83130
1381361246251,1.85615
1381361306251,1.82723
1381361366251,1.82507
1381361426251,1.86167
1381361486251,1.84475
1381361546251,1.86765
1381361606251,1.86162
1381361666251,1.83925
1381361726251,1.80516
1381361786251,1.82487
1381361846251,1.84986
1381361906251,1.85023
1381361966251,1.86357
1381362026251,1.85205
1381362086251,1.85442
1381362146251,1.80892
1381362206251,1.81247
1381362266251,1.85259
1381362326251,1.83200
1381362386251,1.85976
1381362446251,1.84774
1381362506251,1.82249
1381362566251,1.83639
1381362626251,1.86580
1381362686251,1.84116
1381362746251,1.84245
1381362806251,1.84468
1381362866251,1.88280
1381362926251,1.86202
1381362986251,1.84643
1381363046251,1.83539
1381363106251,1.83972
1381363166251,1.83485
